CAPE
0 0 0 0 0 0 0 0 0 0 0 0 0 0 0 0 0 0 0 0 0 0 0 0 0 0 0 0 0 0 0 0 0 0 0 0 0 0 0 0 0 0 0
0 0 0 0 0 0 0 0 0 0 0 0 0 0 0 0 0 0 0 0 0 0 0 0 0 0 0 0 0 0 0 0 0 0 0 0 1 0 0 0 0 0 0
0 0 0 0 0 0 0 0 0 0 0 0 0 0 0 0 0 0 0 0 0 0 0 0 0 0 0 0 0 0 8 19 4 1 1 13 31 30 9 0 0 0 0
0 0 0 0 0 0 0 0 0 0 0 0 0 0 0 0 0 0 0 0 0 0 0 0 0 0 0 0 0 0 0 2 8 7 25 24 34 53 30 30 5 0 0
0 0 0 0 0 0 0 0 0 0 0 0 0 0 0 0 0 0 0 0 0 0 0 0 0 0 0 0 0 0 0 0 0 0 2 2 0 4 41 14 4 0 15
0 0 0 0 0 0 0 0 0 0 0 0 0 0 0 0 0 0 0 0 0 0 0 0 0 0 0 0 0 0 0 0 0 0 0 0 3 6 15 13 4 10 2
0 0 0 0 0 0 0 0 0 0 0 0 0 0 0 0 0 0 0 0 0 0 0 0 0 0 0 0 0 0 0 0 0 0 0 0 0 0 6 15 13 25 6
0 0 0 0 0 0 0 0 0 0 0 0 0 0 0 0 0 0 0 0 0 0 0 0 0 0 0 0 0 0 0 0 0 0 0 0 0 0 0 10 44 5 1
0 0 0 0 0 0 0 0 0 0 0 0 0 0 0 0 0 0 0 0 0 0 0 0 0 0 0 0 0 0 0 0 0 0 0 0 0 0 0 29 59 57 21
0 0 0 0 0 0 0 0 0 0 0 0 0 0 0 0 0 0 0 0 0 0 0 0 0 0 0 0 0 0 0 0 0 0 0 0 0 0 9 26 13 6 41
0 0 0 0 0 0 0 0 0 0 0 0 0 0 0 0 0 0 0 0 0 0 0 0 0 0 0 0 0 0 0 0 0 0 0 0 0 0 0 0 0 0 5
0 0 0 0 0 0 0 0 0 0 0 0 0 0 0 0 0 0 0 0 0 0 0 0 0 0 0 0 0 0 0 0 0 0 0 0 13 0 0 0 0 0 26
0 0 0 0 0 0 0 0 0 0 0 0 0 0 0 0 0 0 0 0 0 0 0 0 0 0 0 0 0 0 0 0 0 0 0 0 0 0 0 0 0 12 2
0 0 0 0 0 0 0 0 0 0 0 0 0 0 0 0 0 0 0 0 0 0 0 0 0 0 0 0 0 0 0 0 0 0 0 0 0 0 0 0 0 23 13
0 0 0 0 0 0 0 0 0 0 0 0 0 0 0 0 0 0 0 0 0 0 0 0 0 0 0 0 0 0 0 0 0 0 0 0 0 0 1 5 3 12 15
0 0 0 0 0 0 0 0 0 0 0 0 0 0 0 0 0 0 0 0 0 0 0 0 0 0 0 0 0 0 0 0 0 0 0 0 0 0 17 22 31 34 27
0 0 0 0 0 0 0 0 0 0 0 0 0 0 0 0 0 0 0 0 0 0 0 0 0 0 0 0 0 0 0 0 0 0 0 0 0 0 0 15 43 35 49
0 0 0 0 0 0 0 0 0 0 0 0 0 0 0 0 0 0 0 0 0 0 0 0 0 0 0 0 0 3 0 0 0 0 0 0 6 0 21 10 6 2 0
0 0 0 0 0 0 0 0 0 0 0 0 0 0 0 0 0 0 0 0 0 0 0 0 0 0 0 0 2 7 0 0 0 0 0 25 5 27 46 37 22 0 7
0 0 0 0 0 0 0 0 0 0 0 0 0 0 0 0 0 0 0 0 0 0 0 0 0 0 0 0 9 12 2 2 0 0 38 17 17 53 57 16 18 11 0
0 0 0 0 0 0 0 0 0 0 0 0 0 0 0 0 0 0 0 0 0 0 0 0 0 0 0 0 16 31 11 9 12 32 0 0 33 80 26 32 1 8 23
0 0 0 0 0 0 0 0 0 0 0 0 0 0 0 0 0 0 0 0 0 0 0 0 0 0 0 6 14 32 37 38 32 9 0 1 45 9 8 7 26 30 27
0 0 0 0 0 0 0 0 0 0 0 0 0 0 0 0 0 0 0 0 0 0 0 0 0 0 0 0 13 25 51 63 27 2 42 6 6 1 0 9 15 13 1
0 0 0 0 0 0 0 0 0 0 0 0 0 0 0 0 0 0 0 0 0 0 0 0 2 0 0 0 0 4 14 27 11 60 0 0 0 0 5 2 0 0 1
0 0 0 0 0 0 0 0 0 0 0 0 0 0 0 0 0 0 0 0 0 0 0 1 4 2 2 1 29 46 19 29 47 33 0 0 0 0 1 0 0 0 2
0 0 0 0 0 0 0 0 0 0 0 0 0 0 0 0 0 0 0 0 1 7 5 10 17 6 25 41 50 49 69 67 29 0 0 0 1 2 4 4 3 1 4
CIN
0 0 0 0 0 0 0 0 0 0 0 0 0 0 0 0 0 0 0 0 0 0 0 0 0 0 0 0 0 0 0 0 0 0 0 0 0 0 0 0 0 0 0
0 0 0 0 0 0 0 0 0 0 0 0 0 0 0 0 0 0 0 0 0 0 0 0 0 0 0 0 0 0 0 0 0 0 0 0 -1 0 0 0 0 0 0
0 0 0 0 0 0 0 0 0 0 0 0 0 0 0 0 0 0 0 0 0 0 0 0 0 0 0 0 0 -1 0 0 -5 -3 0 -9 -1 -2 -4 0 0 0 0
0 0 0 0 0 0 0 0 0 0 0 0 0 0 0 0 0 0 0 0 0 0 0 0 0 0 0 0 0 0 0 0 0 -1 -3 -4 0 -1 -1 -2 -18 0 0
0 0 0 0 0 0 0 0 0 0 0 0 0 0 0 0 0 0 0 0 0 0 0 0 0 0 0 0 0 0 0 0 0 0 -1 -1 0 -2 0 0 -4 0 -4
0 0 0 0 0 0 0 0 0 0 0 0 0 0 0 0 0 0 0 0 0 0 0 0 0 0 0 0 0 0 0 0 0 0 0 0 0 -1 0 0 -1 -1 -2
0 0 0 0 0 0 0 0 0 0 0 0 0 0 0 0 0 0 0 0 0 0 0 0 0 0 0 0 0 0 0 0 0 0 0 0 0 0 -1 -1 0 -1 -2
0 0 0 0 0 0 0 0 0 0 0 0 0 0 0 0 0 0 0 0 0 0 0 0 0 0 0 0 0 0 0 0 0 0 0 0 0 0 0 -1 0 -1 -1
0 0 0 0 0 0 0 0 0 0 0 0 0 0 0 0 0 0 0 0 0 0 0 0 0 0 0 0 0 0 0 0 0 0 0 0 0 0 0 -3 -1 -1 0
0 0 0 0 0 0 0 0 0 0 0 0 0 0 0 0 0 0 0 0 0 0 0 0 0 0 0 0 0 0 0 0 0 0 0 0 0 0 -4 -6 -3 -2 -2
0 0 0 0 0 0 0 0 0 0 0 0 0 0 0 0 0 0 0 0 0 0 0 0 0 0 0 0 0 0 0 0 0 0 0 0 0 -3 0 0 0 0 -1
0 0 0 0 0 0 0 0 0 0 0 0 0 0 0 0 0 0 0 0 0 0 0 0 0 0 0 0 0 0 0 0 0 0 0 0 0 0 0 0 0 0 -8
0 0 0 0 0 0 0 0 0 0 0 0 0 0 0 0 0 0 0 0 0 0 0 0 0 0 0 0 0 0 0 0 0 0 0 0 0 0 0 0 0 -2 -9
0 0 0 0 0 0 0 0 0 0 0 0 0 0 0 0 0 0 0 0 0 0 0 0 0 0 0 0 0 0 0 0 0 0 0 0 0 0 0 0 0 -2 -4
0 0 0 0 0 0 0 0 0 0 0 0 0 0 0 0 0 0 0 0 0 0 0 0 0 0 0 0 0 0 0 0 0 0 0 0 0 0 0 -2 -2 -3 -2
0 0 0 0 0 0 0 0 0 0 0 0 0 0 0 0 0 0 0 0 0 0 0 0 0 0 0 0 0 0 0 0 0 0 0 0 0 0 0 0 0 -1 -3
0 0 0 0 0 0 0 0 0 0 0 0 0 0 0 0 0 0 0 0 0 0 0 0 0 0 0 0 0 0 0 0 0 0 0 0 0 -2 -1 -2 -1 -1 0
0 0 0 0 0 0 0 0 0 0 0 0 0 0 0 0 0 0 0 0 0 0 0 0 0 0 0 0 0 0 0 0 0 0 0 0 -3 0 -3 -1 -5 -10 0
0 0 0 0 0 0 0 0 0 0 0 0 0 0 0 0 0 0 0 0 0 0 0 0 0 0 0 0 0 -1 0 0 0 0 0 -1 -3 -1 0 0 0 0 -1
0 0 0 0 0 0 0 0 0 0 0 0 0 0 0 0 0 0 0 0 0 0 0 0 0 0 0 0 0 0 -3 -3 0 -1 0 0 -2 0 0 0 -1 0 0
0 0 0 0 0 0 0 0 0 0 0 0 0 0 0 0 0 0 0 0 0 0 0 0 0 0 0 0 0 0 -2 0 0 0 0 0 0 0 0 0 -6 -2 -1
0 0 0 0 0 0 0 0 0 0 0 0 0 0 0 0 0 0 0 0 0 0 0 0 0 0 0 -1 -1 0 0 0 0 -1 0 -1 0 0 0 -1 0 0 -1
0 0 0 0 0 0 0 0 0 0 0 0 0 0 0 0 0 0 0 0 0 0 0 0 0 0 0 0 0 0 0 0 -1 -6 -1 0 0 0 0 0 0 0 -1
0 0 0 0 0 0 0 0 0 0 0 0 0 0 0 0 0 0 0 0 0 0 0 0 -1 -1 -2 0 0 -4 -1 -1 -3 0 0 0 0 0 -1 -1 -1 0 -1
0 0 0 0 0 0 0 0 0 0 0 0 0 0 0 0 0 0 0 0 0 0 -2 -2 -2 -1 -1 -2 0 0 -1 -1 0 -2 0 0 0 -1 -1 -2 -2 -1 -1
0 0 0 0 0 0 0 0 0 0 0 0 0 0 0 0 0 0 0 0 0 0 0 0 -1 0 0 0 0 0 0 0 0 -1 0 0 -1 -1 -1 0 -1 -1 0
Wind_Speed
3 5 7 8 9 8 8 9 11 9 5 4 3 2 1 2 2 2 4 4 4 4 4 4 5 4 4 7 7 4 5 7 6 6 7 9 11 12 11 11 11 13 14
6 7 8 9 8 6 9 12 12 11 7 3 2 2 3 3 3 4 7 8 7 7 6 5 4 5 4 6 6 5 7 5 4 5 7 6 4 7 10 9 9 13 10
6 5 7 7 7 10 9 10 10 11 10 8 4 4 4 4 5 6 5 7 7 8 8 7 6 6 5 5 6 6 7 8 8 7 7 5 8 9 6 7 8 11 9
2 5 6 7 7 7 7 8 10 10 10 9 10 10 5 5 3 3 3 5 8 8 9 8 7 6 5 7 6 7 6 8 8 7 5 10 11 10 12 5 5 7 9
6 6 7 7 5 6 7 6 9 11 10 11 9 7 7 3 2 4 7 7 7 7 9 10 8 8 6 6 6 8 9 4 6 7 8 9 8 8 9 15 9 9 7
6 5 6 6 7 6 7 7 11 10 10 10 10 10 10 7 8 9 8 7 6 6 8 10 8 7 7 8 8 8 7 7 6 6 6 7 7 10 9 12 14 14 10
7 6 7 7 7 7 6 7 9 9 8 10 11 10 9 8 8 7 7 9 8 7 10 10 10 9 9 9 8 7 7 7 7 8 7 6 7 7 8 9 12 12 11
6 7 7 6 7 7 7 7 8 9 8 9 9 7 8 5 5 6 5 5 5 5 8 9 9 10 10 10 9 8 6 9 7 10 7 7 8 8 8 9 10 13 12
7 7 7 6 7 7 7 7 7 7 8 7 6 7 7 7 6 6 4 4 5 8 9 7 8 9 10 11 11 8 10 10 9 6 7 8 8 8 7 8 7 8 12
7 7 6 7 6 6 6 7 7 8 6 6 6 6 6 6 6 6 7 7 6 7 8 9 9 10 10 11 12 9 11 11 7 10 12 11 10 10 7 7 7 8 9
7 7 6 6 6 6 6 6 7 7 7 6 5 6 8 7 6 5 5 6 6 7 8 9 10 10 11 11 11 11 11 13 11 11 13 15 13 9 9 8 7 9 9
7 7 7 7 6 6 6 6 6 6 5 6 7 6 5 5 6 6 6 6 6 8 8 9 10 10 11 11 11 12 11 12 13 14 13 13 10 10 8 8 13 11 8
7 7 6 6 6 5 5 5 6 6 5 5 5 5 6 6 6 6 7 7 8 9 10 9 10 11 11 12 11 9 13 13 13 10 11 14 12 12 10 12 12 12 7
8 7 6 6 5 5 5 5 5 5 5 5 6 5 6 6 6 6 7 7 8 8 9 10 10 10 12 12 11 14 14 13 11 10 11 13 13 14 16 14 14 11 11
7 8 7 6 6 6 5 4 5 5 4 5 5 5 5 5 6 6 6 6 7 8 9 11 11 11 11 10 16 15 15 15 14 13 13 12 18 26 20 14 15 15 13
7 8 8 7 6 6 4 3 3 3 4 4 4 5 6 6 6 7 8 8 8 9 10 11 11 13 10 24 26 22 15 15 14 14 14 14 20 17 27 27 30 25 17
7 8 7 7 6 5 5 3 2 2 2 2 4 5 5 6 7 8 8 9 10 10 11 11 11 13 13 24 26 27 14 14 14 14 15 15 12 19 14 22 27 24 28
7 8 7 6 6 4 3 3 2 1 4 6 6 5 5 6 7 7 7 8 8 9 11 11 12 13 12 24 27 27 14 14 14 15 15 14 15 16 21 20 18 15 18
7 7 6 5 6 5 3 3 2 5 5 5 5 5 5 6 6 8 9 9 8 10 10 11 13 13 14 24 26 24 15 14 15 15 14 15 16 24 32 20 19 21 17
6 7 6 6 6 4 4 3 4 3 4 5 6 6 5 6 8 8 9 6 8 11 10 13 11 16 14 21 26 24 12 14 13 14 12 22 22 31 30 22 19 17 18
7 6 6 6 5 4 3 3 3 4 5 5 5 6 6 6 7 6 6 8 10 10 11 12 12 12 12 14 26 29 15 12 13 11 13 12 28 27 32 32 14 19 24
6 5 6 4 3 4 3 2 4 5 5 5 6 6 7 7 7 8 8 8 9 10 12 13 12 9 11 18 21 28 28 26 15 15 13 14 24 30 31 22 30 32 26
5 4 5 5 3 3 3 2 4 5 5 6 6 7 8 7 8 7 9 8 8 9 11 10 11 11 10 10 23 26 27 26 18 13 21 21 26 29 18 26 29 26 12
5 4 5 4 3 2 2 4 5 5 5 6 7 7 7 9 6 4 6 6 8 8 10 10 11 11 11 10 11 11 12 19 15 19 9 18 22 22 21 18 15 11 11
5 5 4 3 2 2 3 4 5 4 5 6 7 7 6 7 8 6 6 7 7 9 12 11 11 12 12 12 24 23 15 14 18 22 10 10 11 12 12 12 13 12 12
5 4 3 1 2 4 5 6 5 5 6 6 6 6 6 6 7 8 9 12 17 21 23 24 19 11 22 28 29 30 30 29 33 16 10 10 11 12 13 14 14 13 17
Wind_Direction
26 27 25 21 19 21 20 20 31 13 55 66 75 65 314 355 8 334 308 303 297 287 259 261 276 275 264 277 285 271 263 280 261 275 268 259 253 251 248 245 245 247 243
53 32 27 29 23 26 31 34 32 30 34 60 68 96 87 61 58 28 34 27 32 26 27 354 329 315 302 301 292 275 289 272 269 259 280 285 281 247 243 246 245 248 252
112 82 54 39 28 33 27 37 28 35 34 30 45 45 44 35 25 20 25 17 30 33 28 21 12 0 352 337 322 308 293 294 292 259 264 289 287 306 260 236 235 242 243
131 101 86 57 45 31 35 42 43 41 38 30 58 63 60 62 12 3 355 13 20 21 21 12 6 358 351 354 340 342 328 325 315 312 273 265 283 300 304 267 273 251 255
140 118 97 87 65 52 51 47 57 50 41 49 51 63 62 47 10 10 21 15 10 13 17 7 359 355 349 334 329 334 337 317 319 315 314 309 300 293 295 302 300 292 282
146 117 100 95 76 58 53 50 64 49 43 52 47 54 52 37 34 19 18 5 3 359 8 358 353 343 340 338 330 323 320 316 309 307 310 305 307 305 303 299 303 294 292
157 137 113 96 86 75 60 65 65 56 47 56 50 43 42 40 37 18 10 5 0 360 357 354 350 346 339 333 328 318 308 307 302 304 304 299 299 298 297 296 300 297 307
170 147 127 116 109 97 76 68 63 61 48 53 49 44 40 40 32 20 9 2 352 337 345 342 341 339 335 333 330 322 313 313 305 301 302 303 304 297 291 289 296 304 300
167 146 124 123 112 89 77 80 76 65 55 51 56 44 37 33 21 6 357 354 347 348 345 333 334 335 335 333 330 322 322 319 313 310 312 308 308 299 292 286 297 299 306
158 141 132 125 99 94 87 72 69 71 60 54 44 42 27 21 14 9 5 352 340 339 337 340 339 337 336 332 333 325 325 319 332 327 326 307 307 304 294 301 300 298 293
170 155 137 118 109 96 77 71 62 59 48 47 40 36 23 14 0 1 352 348 333 332 336 339 337 338 334 332 329 326 324 332 327 323 316 310 310 305 319 308 315 305 297
174 150 140 128 114 93 76 68 60 60 47 44 41 31 13 3 3 351 337 332 335 337 337 337 334 332 329 325 321 317 328 319 323 318 314 316 326 318 315 315 309 299 294
149 140 132 130 112 97 81 68 56 51 49 52 45 27 13 1 350 337 343 344 341 339 337 334 329 327 325 322 315 322 320 319 318 315 326 320 315 315 312 309 297 294 299
160 145 133 123 114 98 87 73 60 48 43 42 32 15 4 352 344 323 332 337 332 323 328 330 326 325 323 320 326 326 323 322 312 320 315 314 318 314 316 306 308 305 306
152 148 142 136 128 106 91 76 57 43 41 40 23 355 343 339 330 326 327 322 328 331 325 324 324 323 322 325 329 325 321 320 318 319 318 315 314 312 314 317 314 310 306
162 150 142 144 128 122 113 95 79 47 43 33 6 352 348 335 328 327 335 334 326 325 323 318 318 322 321 324 326 328 320 318 318 316 315 311 310 309 316 313 313 311 315
165 154 149 142 139 140 147 132 97 44 14 26 13 358 337 330 333 331 328 324 328 319 317 321 319 315 315 320 325 325 319 319 314 311 309 308 307 313 302 304 309 307 306
148 140 142 133 142 141 117 127 84 24 25 12 352 337 329 331 325 318 312 319 317 314 315 313 310 308 309 321 324 324 321 313 307 303 303 305 313 303 311 311 317 308 302
151 146 146 142 126 125 134 106 42 28 13 340 317 336 334 324 308 322 323 308 307 317 311 308 307 308 309 321 323 325 319 311 308 307 310 312 304 309 319 323 316 312 306
121 132 127 125 131 128 114 98 39 3 339 322 319 325 311 307 330 302 299 296 306 305 304 303 303 307 311 310 321 325 319 312 310 309 306 305 314 316 324 326 319 319 313
119 120 122 131 141 147 108 65 2 327 304 309 317 314 326 312 279 287 292 303 305 299 299 304 311 306 303 309 320 324 320 314 313 313 313 309 314 325 330 323 328 311 313
130 131 126 134 135 88 72 19 300 293 310 321 315 313 295 296 303 293 296 293 296 302 309 309 307 306 302 312 320 321 322 321 321 314 310 311 328 333 328 332 320 322 323
146 130 130 129 128 116 75 309 286 316 320 325 316 298 296 291 289 289 298 306 305 306 303 305 305 310 317 314 315 316 317 320 320 315 313 337 332 330 329 323 324 324 313
160 143 140 156 160 101 259 256 304 326 331 306 295 294 290 301 291 276 285 294 302 298 301 303 313 314 316 315 310 313 315 318 320 311 330 326 329 326 320 321 319 314 310
162 151 145 143 230 267 317 321 317 317 304 292 284 283 282 282 301 295 286 295 288 296 308 311 313 315 315 313 320 325 322 322 324 328 325 324 324 319 320 319 319 315 311
148 135 147 168 307 331 314 310 315 311 293 291 295 295 303 301 305 302 302 298 305 311 314 315 315 314 316 318 322 323 327 331 333 323 315 320 317 320 320 319 318 314 311